Weather History for False Pass, AK

Change the Weather History Date:

Thursday, October 18, 2012

  Actual Average (PACD) Record (PACD)
Temperature  
Mean Temperature 35 °F 40 °F  
Max Temperature 37 °F 45 °F 57 °F (2004)
Min Temperature 33 °F 35 °F 22 °F (2007)
Degree Days  
Heating Degree Days 30 25  
Month to date heating degree days 414  
Since 1 July heating degree days 1765  
Cooling Degree Days 0    
Month to date cooling degree days  
Year to date cooling degree days  
Moisture  
Dew Point 27 °F    
Average Humidity 72    
Maximum Humidity 87    
Minimum Humidity 59    
Precipitation  
Precipitation 0.03 in 0.16 in 0.60 in (1981)
Month to date precipitation 2.81  
Year to date precipitation 30.28  
Snow  
Snow 0.00 in 0.00 in 1.30 in (1966)
Month to date snowfall 0.7  
Since 1 July snowfall 0.7  
Since 1 September snowfall 0.7  
Snow Depth -    
Sea Level Pressure  
Sea Level Pressure 30.42 in    
Wind  
Wind Speed - (North)    
Max Wind Speed -    
Max Gust Speed -    
Visibility 7 miles    
Events Rain , Snow    
T = Trace of Precipitation, MM = Missing Value Source: NWS Daily Summary

Daily Weather History Graph

Daily Weather History Graph

Search for Another Location

Airport:

Trip Planner

Search our weather history database for the weather conditions in past years. The results will help you decide how hot, cold, wet, or windy it might be!

Date:

Astronomy

Oct. 18, 2012 Rise Set
Actual Time 8:30 AM HADT 6:46 PM HADT
Civil Twilight 7:53 AM HADT 7:22 PM HADT
Nautical Twilight 7:11 AM HADT 8:04 PM HADT
Astronomical Twilight 6:29 AM HADT 8:46 PM HADT
Moon 1:02 PM HADT (10/18) 8:55 PM HADT (10/18)
Length of Visible Light 11h 29m
Length of Day
10h 15m
Waxing Crescent, 16% of the Moon is Illuminated
Oct 18
Waxing Crescent
Oct 21
First Quarter
Oct 29
Full
Nov 6
Last Quarter
Nov 13
New

Hourly Weather History & Observations

Time (HADT) Temp. Dew Point Humidity Pressure Visibility Wind Dir Wind Speed Gust Speed Precip Events Conditions
12:01 AM 33.8 °F 30.2 °F 87% 30.24 in 3.0 mi North - - 0.00 in Snow Light Snow
12:52 AM 34.0 °F 30.0 °F 85% 30.53 in 3.0 mi North - - 0.01 in Snow Light Snow
1:01 AM 35.1 °F 30.0 °F 82% 30.53 in 8.0 mi North - - 0.00 in Snow Light Snow
1:16 AM 35.6 °F 28.4 °F 75% 30.23 in 10.0 mi North - - 0.00 in Rain Light Rain
2:01 AM 35.1 °F 28.0 °F 76% 30.53 in 9.0 mi North - - 0.00 in Rain Light Rain
3:01 AM 34.0 °F 28.9 °F 82% 30.54 in 4.0 mi North - - 0.01 in Snow Light Snow
4:01 AM 33.1 °F 28.0 °F 82% 30.55 in 1.8 mi North - - 0.00 in Snow Light Snow
4:05 AM 33.8 °F 26.6 °F 75% 30.26 in 3.0 mi North - - 0.00 in Snow Light Snow
5:01 AM 34.0 °F 27.0 °F 75% 30.54 in 10.0 mi North - - 0.00 in Rain Light Rain
6:01 AM 34.0 °F 26.1 °F 73% 30.55 in 10.0 mi North - - 0.00 in   Mostly Cloudy
6:59 AM 33.8 °F 26.6 °F 75% 30.28 in 3.0 mi North - - 0.00 in Snow Light Snow
7:01 AM 33.8 °F 26.6 °F 75% 30.28 in 2.5 mi North - - 0.00 in Snow Light Snow
7:11 AM 33.8 °F 26.6 °F 75% 30.28 in 5.0 mi North - - 0.00 in Snow Light Snow
7:29 AM 33.8 °F 26.6 °F 75% 30.29 in 8.0 mi North - - 0.00 in Rain Light Rain
7:46 AM 34.0 °F 23.0 °F 64% 30.57 in 9.0 mi North - - 0.00 in Snow Light Snow
8:01 AM 34.0 °F 27.0 °F 75% 30.58 in 10.0 mi North - - 0.00 in Rain Light Rain
9:01 AM 35.1 °F 24.1 °F 64% 30.58 in 10.0 mi North - - 0.00 in   Scattered Clouds
10:01 AM 35.1 °F 25.0 °F 67% 30.59 in 5.0 mi North - - 0.00 in Snow Light Snow
10:10 AM 35.6 °F 26.6 °F 70% 30.31 in 8.0 mi North - - 0.00 in Rain Light Rain
10:15 AM 35.6 °F 28.4 °F 75% 30.31 in 1.8 mi North - - 0.00 in Snow Light Snow
10:25 AM 35.6 °F 28.4 °F 75% 30.31 in 3.0 mi North - - 0.01 in Snow Light Snow
10:47 AM 35.6 °F 26.6 °F 70% 30.32 in 9.0 mi North - - 0.01 in Rain Light Rain
11:01 AM 36.0 °F 25.0 °F 64% 30.61 in 10.0 mi North - - 0.01 in   Mostly Cloudy
12:01 PM 35.1 °F 27.0 °F 72% 30.61 in 4.0 mi North - - 0.00 in Snow Light Snow
12:13 PM 37.4 °F 26.6 °F 65% 30.32 in 3.0 mi North - - 0.00 in Rain Light Rain
12:18 PM 35.6 °F 28.4 °F 75% 30.32 in 2.0 mi North - - 0.00 in Snow Light Snow
12:29 PM 35.6 °F 26.6 °F 70% 30.31 in 8.0 mi North - - 0.00 in Snow Light Snow
12:39 PM 37.4 °F 24.8 °F 60% 30.31 in 10.0 mi North - - 0.00 in Rain Light Rain
1:01 PM 35.6 °F 28.4 °F 75% 30.31 in 2.0 mi North - - 0.00 in Snow Light Snow
1:10 PM 35.6 °F 28.4 °F 75% 30.31 in 7.0 mi North - - 0.00 in Snow Light Snow
1:20 PM 35.6 °F 28.4 °F 75% 30.30 in 1.2 mi North - - 0.00 in Snow Light Snow
1:43 PM 35.6 °F 26.6 °F 70% 30.31 in 4.0 mi North - - 0.02 in Snow Light Snow
1:51 PM 35.6 °F 28.4 °F 75% 30.32 in 9.0 mi North - - 0.02 in Snow Light Snow
2:01 PM 35.6 °F 28.4 °F 75% 30.31 in 10.0 mi North - - 0.02 in   Overcast
2:11 PM 37.4 °F 28.4 °F 70% 30.31 in 10.0 mi North - - 0.02 in   Overcast
2:25 PM 35.6 °F 28.4 °F 75% 30.32 in 10.0 mi North - - 0.02 in Rain Light Rain
3:01 PM 37.4 °F 28.4 °F 70% 30.31 in 10.0 mi North - - N/A   Overcast
3:30 PM 35.6 °F 26.6 °F 70% 30.31 in 10.0 mi North - - 0.00 in Rain Light Rain
3:52 PM 37.4 °F 26.6 °F 65% 30.31 in 10.0 mi North - - 0.00 in   Mostly Cloudy
4:01 PM 37.0 °F 27.0 °F 67% 30.60 in 10.0 mi North - - 0.00 in Rain Light Rain
5:01 PM 37.0 °F 25.0 °F 62% 30.61 in 10.0 mi North - - 0.00 in   Scattered Clouds
5:19 PM 35.6 °F 26.6 °F 70% 30.32 in 2.5 mi North - - 0.00 in Snow Light Snow
5:26 PM 35.6 °F 26.6 °F 70% 30.32 in 9.0 mi North - - 0.00 in Snow Light Snow
7:01 PM 36.0 °F 27.0 °F 70% 30.62 in 10.0 mi North - - 0.00 in Rain Light Rain
9:01 PM 37.0 °F 24.1 °F 59% 30.66 in 10.0 mi North - - 0.00 in   Overcast
10:01 PM 36.0 °F 26.1 °F 67% 30.67 in 9.0 mi North - - 0.00 in Rain Light Rain
11:01 PM 37.0 °F 26.1 °F 65% 30.68 in 10.0 mi North - - 0.00 in Rain Light Rain